SCP
0 0 0 0 0 0 0 0 0 0 0 0 0 0 0 0 0 0 0 0 0 0 0 0 0 0 0 0 0 0 0 0 0 0 0 0 0 0 0 0 0 0 0
0 0 0 0 0 0 0 0 0 0 0 0 0 0 0 0 0 0 0 0 0 0 0 0 0 0 0 0 0 0 0 0 0 0 0 0 0 0 0 0 0 0 0
-0 -0 0 0 0 0 0 0 0 0 0 0 0 0 0 0 0 0 0 0 0 0 0 0 0 0 0 0 0 0 0 0 0 0 0 0 0 0 0 0 0 0 0
0 0 0 0 0 0 0 0 0 0 0 0 0 0 0 0 0 0 0 0 0 0 0 0 0 0 0 0 0 0 0 0 0 0 0 0 0 0 0 0 0 0 0
0 0 0 0 0 0 0 0 0 0 0 0 0 0 0 0 0 0 0 0 0 0 0 0 0 0 0 0 0 0 0 0 0 0 0 0 0 0 0 0 0 0 0
0 0 0 0 0 -0 -0 -0 0 0 0 0 0 0 0 0 0 0 0 0 0 0 0 0 0 0 0 0 0 0 0 -0 -0 0 0 0 0 0 0 0 0 0 0
0 0 0 0 -0 -0 -0 -0 -0 -0 0 0 0 0 0 0 0 0 0 0 0 0 0 0 0 0 0 0 0 0 0 -0 -0 0 0 0 0 0 0 0 0 0 0
0 0 0 0 0 -0 -0 -0 -0 0 0 0 0 0 0 0 0 0 0 0 0 0 0 0 0 0 0 0 0 0 -0 -0 -0 0 0 0 0 0 0 0 0 0 0
0 0 0 0 0 -0 -0 0 0 0 0 0 0 0 0 0 0 0 -0 0 0 0 0 0 0 0 0 0 0 0 0 0 -0 0 0 0 0 0 0 0 0 0 0
0 0 0 0 0 0 0 0 0 0 0 0 0 0 0 0 0 0 -0 -0 -0 -0 0 0 0 0 0 0 0 0 0 0 0 0 0 0 0 0 0 0 0 0 0
0 0 0 0 0 -0 0 0 0 0 0 0 0 0 0 0 -0 -0 -0 -0 -0 -0 0 0 0 0 0 0 0 0 0 0 0 0 0 0 0 0 0 0 0 0 0
0 0 0 0 0 0 0 0 0 0 0 0 0 0 0 0 -0 -0 -0 -0 -0 -0 0 0 0 0 0 0 0 0 0 0 0 0 0 0 0 0 0 0 0 0 0
0 0 0 0 0 0 0 0 0 0 0 0 0 0 0 0 0 0 0 0 0 -0 0 0 0 0 0 0 0 0 0 0 0 0 0 0 0 0 0 0 0 0 0
0 0 0 0 0 0 0 0 0 0 0 0 0 0 -0 -0 0 0 0 0 0 0 0 0 0 0 0 0 0 0 0 0 0 0 0 0 0 0 0 0 0 0 0
0 0 0 0 0 0 0 0 0 0 0 0 0 0 -0 -0 -0 0 0 0 0 0 0 0 0 0 0 0 0 0 0 0 0 0 0 0 0 0 0 0 0 0 0
0 0 0 0 0 0 0 0 0 0 0 0 0 0 -0 -0 -0 -0 0 0 0 0 0 0 0 0 0 0 0 0 0 0 0 0 0 0 0 0 0 0 0 0 0
0 0 0 0 0 0 0 0 0 0 0 0 0 0 0 0 0 0 0 0 0 0 0 0 0 0 0 0 0 0 0 0 0 0 0 0 0 0 0 0 0 0 0
0 0 0 0 0 0 0 0 0 0 0 0 0 0 0 0 0 0 0 0 0 0 0 0 0 0 0 0 0 0 0 0 0 0 0 0 0 0 0 0 0 0 0
0 0 0 0 0 0 0 0 0 0 0 0 0 0 0 0 0 0 0 0 0 0 0 0 0 0 0 0 0 0 0 0 0 0 0 0 0 0 0 0 0 0 0
0 0 0 0 0 0 0 0 0 0 0 0 0 0 0 0 0 0 0 0 0 0 0 0 0 0 0 0 0 0 0 0 0 0 0 0 0 0 0 0 0 0 0
0 0 0 0 0 0 0 0 0 0 0 0 0 0 0 0 0 0 0 0 0 0 0 0 0 0 0 0 0 0 0 0 0 0 0 0 0 0 0 0 0 0 0
0 0 0 0 0 0 0 0 0 0 0 0 0 0 0 0 0 0 0 0 0 0 0 0 0 0 0 0 0 0 0 0 0 0 0 0 0 0 0 0 0 0 0
0 0 0 0 0 0 0 0 0 0 0 0 0 0 0 0 0 0 0 0 0 0 0 0 0 0 0 0 0 0 0 0 0 0 0 0 0 0 0 0 0 0 0
0 0 0 0 0 0 0 0 0 0 0 0 0 0 0 0 0 0 0 0 0 0 0 0 0 0 0 0 0 0 0 0 0 0 0 0 0 0 0 0 0 0 -0
0 0 0 0 0 0 0 0 0 0 0 0 0 0 0 0 0 0 0 0 0 0 0 0 0 0 0 0 0 0 0 0 0 0 -0 0 0 0 0 0 0 0 -0
0 0 0 0 0 0 0 0 0 0 0 0 0 0 0 0 0 0 0 0 0 0 0 0 0 0 0 0 0 0 0 0 0 0 0 0 0 0 0 0 0 0 0
Wind_Speed
6 6 6 6 6 6 7 8 9 10 11 11 13 12 13 12 12 10 10 11 12 11 11 11 12 11 8 7 8 9 9 10 10 8 4 4 6 7 6 6 8 7 12
7 8 8 8 8 8 8 9 10 11 12 12 12 12 11 11 11 11 11 11 11 11 12 12 12 11 11 9 8 10 9 7 7 8 6 3 4 8 9 9 7 8 9
9 9 9 8 8 8 10 11 12 12 12 11 10 9 9 10 10 10 10 10 10 12 12 13 13 13 12 10 10 8 7 7 7 8 6 3 4 6 10 9 7 8 9
9 8 8 8 8 8 10 11 11 11 10 9 8 8 8 8 9 9 10 10 11 12 12 12 13 13 13 12 10 10 8 8 8 9 6 6 7 6 8 9 8 7 7
8 8 8 9 9 9 11 11 10 9 8 8 8 8 7 7 7 10 10 10 11 11 12 12 12 16 19 16 12 10 9 9 8 8 6 7 8 9 8 8 11 9 9
9 9 9 9 10 11 10 10 8 7 8 9 9 9 10 8 12 16 15 11 10 11 12 12 13 15 16 17 18 16 13 12 9 5 8 10 11 9 10 10 11 9 6
10 11 10 10 10 9 9 8 7 8 10 11 9 9 11 11 15 18 20 10 9 10 11 12 11 11 14 10 13 15 14 13 8 2 10 13 13 14 15 12 8 8 8
11 11 11 9 8 8 6 6 7 8 10 11 10 9 9 10 16 18 15 9 9 10 11 12 13 13 12 11 7 6 7 8 8 7 9 11 13 14 13 14 15 15 12
10 11 10 8 7 7 7 9 8 8 10 10 9 9 9 11 17 20 14 8 9 11 11 12 14 13 17 15 5 1 4 5 6 12 13 16 20 21 19 16 15 15 12
10 9 8 8 8 8 8 7 5 5 7 8 9 9 10 11 15 20 17 9 9 10 11 12 17 16 19 18 10 9 11 12 15 19 21 21 19 18 17 14 14 14 14
9 8 7 7 7 7 6 5 6 6 7 9 9 10 12 13 15 20 20 10 9 9 9 10 11 16 18 19 15 12 12 12 15 16 14 13 12 11 10 9 7 9 11
8 7 7 7 6 6 7 7 7 7 8 9 10 10 10 12 16 19 20 17 15 10 9 9 11 17 17 16 13 14 14 12 10 10 10 10 10 10 10 10 10 10 10
6 6 5 6 6 6 6 7 6 6 6 7 9 9 9 9 11 17 18 18 18 13 11 15 17 17 15 12 13 14 11 9 9 9 10 10 9 11 12 12 14 14 13
5 5 5 6 6 6 5 4 5 6 7 7 8 8 9 9 9 10 11 12 15 13 13 15 18 16 14 13 10 8 8 8 8 9 10 10 10 10 10 11 11 11 11
4 4 4 4 4 5 6 4 4 3 4 6 7 7 8 11 13 17 14 12 11 11 11 10 12 11 11 10 9 8 7 8 9 10 10 10 9 10 9 10 9 10 11
4 3 3 3 4 5 6 4 5 5 8 9 10 8 8 12 17 19 18 17 17 14 10 9 10 10 10 10 9 7 7 8 7 9 9 9 10 10 10 9 9 9 10
4 4 3 3 4 6 5 3 3 6 8 10 13 15 15 15 18 20 19 16 16 14 9 9 9 9 9 9 8 7 6 5 6 7 9 9 10 10 10 8 8 10 10
2 3 2 3 3 3 4 3 2 4 6 7 9 11 15 17 17 18 17 12 10 11 9 8 8 8 8 8 8 7 6 5 5 7 9 9 9 9 8 7 8 10 10
5 4 4 4 4 4 4 4 4 4 4 5 7 9 11 12 13 13 13 10 9 8 8 8 7 7 7 7 7 7 6 5 5 7 8 9 8 9 8 7 8 11 11
5 6 5 4 5 5 6 6 5 5 5 6 8 9 9 10 10 8 8 9 9 8 8 7 7 7 7 6 6 6 6 5 5 7 7 7 7 8 9 10 10 10 10
5 6 7 6 6 6 7 7 6 6 6 6 6 9 13 10 8 9 8 8 8 7 7 7 6 5 5 5 5 5 5 5 4 6 7 7 8 9 9 9 9 9 10
6 6 6 7 7 7 7 7 7 7 8 8 7 9 11 8 8 8 8 8 8 7 7 6 5 5 5 5 5 5 4 4 3 6 7 7 8 9 9 8 8 9 10
6 7 7 7 7 7 8 8 8 8 8 8 9 9 9 9 8 8 8 8 8 7 7 6 6 6 5 5 4 4 4 4 2 6 8 7 8 9 9 9 10 10 10
7 7 7 7 7 7 7 8 8 9 9 9 9 9 9 9 9 9 9 8 8 8 7 6 6 7 8 6 5 4 4 3 3 7 9 8 8 9 9 8 9 11 11
7 7 7 7 7 7 8 8 8 9 9 9 9 9 10 10 10 10 9 8 9 8 9 8 7 9 10 9 8 7 5 6 7 8 7 8 10 10 9 9 9 10 11
7 8 7 7 7 7 7 8 8 9 9 9 9 9 9 9 9 9 9 9 9 9 10 9 12 12 12 10 9 7 7 8 8 8 8 8 8 8 8 7 10 9 10
Wind_Direction
3 354 346 336 328 319 310 306 302 298 288 285 290 287 285 288 287 285 288 290 287 285 280 275 274 272 264 254 248 246 243 235 245 254 238 155 147 137 109 84 73 54 54
347 344 340 329 320 311 302 298 298 294 288 286 287 286 290 294 297 297 295 296 296 294 290 284 278 274 265 253 245 243 241 233 241 256 240 147 130 137 118 97 83 70 57
338 330 319 308 305 305 305 303 301 299 296 295 299 303 310 312 310 309 305 302 298 290 282 276 270 264 257 251 246 243 239 237 237 246 233 151 121 132 109 95 86 79 67
317 304 296 292 295 301 303 305 306 305 309 320 327 326 324 322 324 330 322 312 301 294 289 281 273 264 259 256 249 241 234 231 230 232 210 148 140 131 118 113 97 75 69
308 306 308 310 307 312 316 317 318 323 333 338 332 324 325 324 326 326 321 314 307 303 301 298 291 289 283 267 255 239 225 226 228 223 168 142 143 143 130 122 110 97 69
318 315 318 323 324 322 320 322 324 330 337 335 330 326 326 323 316 324 326 316 309 308 306 307 307 304 297 285 269 255 234 227 232 204 149 150 151 139 132 136 127 124 99
317 312 315 318 318 321 328 337 343 333 329 324 316 318 323 323 325 324 323 321 310 317 319 318 317 315 308 287 268 251 242 241 242 191 155 154 151 147 141 133 121 106 109
314 315 318 318 317 326 336 341 334 325 327 325 329 329 330 332 333 335 333 330 328 330 330 331 330 325 323 314 270 232 219 215 209 188 162 151 144 141 134 123 116 108 104
318 322 325 325 329 334 339 333 332 335 339 341 345 348 346 339 347 359 356 340 339 342 337 341 345 342 347 345 341 83 117 95 111 112 112 117 126 128 127 121 121 121 118
325 328 333 343 347 343 337 333 341 349 344 344 351 352 351 351 355 359 359 349 345 345 343 349 352 359 8 13 32 59 76 81 92 88 89 94 103 113 117 120 130 128 128
330 333 343 355 358 356 356 1 360 357 352 355 360 360 0 1 358 358 356 359 354 346 350 351 352 8 23 26 44 57 70 83 93 96 99 100 99 99 100 100 108 124 128
334 346 358 7 14 12 15 5 4 8 6 3 5 2 359 358 359 359 357 0 5 4 1 357 359 12 25 32 45 53 64 74 84 92 96 97 98 98 99 98 95 91 97
337 2 9 11 11 7 8 360 358 10 14 3 0 356 354 355 357 357 2 6 8 10 9 10 13 19 19 28 42 49 60 69 78 86 90 90 94 99 97 96 96 96 93
342 355 3 9 4 2 2 5 12 14 4 1 2 0 359 359 1 6 8 7 8 8 9 16 19 19 20 20 24 51 68 79 87 85 88 94 98 95 97 109 110 110 110
328 337 346 352 359 1 357 355 13 9 341 1 1 352 3 11 9 11 13 17 13 10 13 19 16 15 15 16 19 44 66 78 86 92 100 103 98 99 102 113 114 114 117
293 300 316 334 349 353 354 358 10 19 13 12 7 6 14 17 11 9 7 11 15 16 26 25 18 12 13 11 14 27 48 77 90 103 108 102 105 109 112 107 98 105 111
268 286 313 336 349 351 360 9 356 351 353 359 4 7 9 11 14 9 2 4 18 22 26 20 18 15 8 5 12 20 26 53 80 89 101 111 113 113 115 111 112 114 112
342 334 348 356 10 17 12 6 9 358 358 355 351 3 2 2 4 5 4 4 14 23 21 15 12 9 7 4 6 11 21 35 71 93 106 119 121 119 119 117 120 122 121
51 47 51 58 59 44 29 26 29 26 22 7 3 5 359 353 353 0 8 17 13 12 12 10 6 3 3 2 0 5 17 27 64 100 107 118 126 125 119 117 117 118 121
54 57 61 58 53 43 34 30 27 25 22 23 26 14 2 357 359 358 17 20 16 9 4 4 5 0 357 356 356 4 10 17 54 105 109 110 115 120 122 124 123 122 121
63 58 59 63 55 46 37 30 26 24 24 23 23 14 6 2 355 359 10 10 9 6 2 357 356 353 350 350 353 360 10 17 34 104 111 111 116 118 120 120 117 115 117
73 68 61 58 53 47 40 35 32 32 30 25 14 360 351 1 7 360 4 9 1 360 358 354 350 346 342 342 346 349 3 18 33 106 107 107 112 114 116 114 112 114 119
73 68 61 54 48 43 39 34 33 31 27 22 15 8 3 3 5 0 356 1 357 354 353 353 352 347 340 336 336 345 355 353 28 112 109 110 116 119 121 120 123 122 123
74 70 65 56 49 43 38 33 31 31 28 22 17 14 9 5 3 1 355 352 354 352 350 351 353 350 349 347 341 347 356 356 60 101 103 106 112 114 116 119 125 131 132
77 73 66 58 52 46 40 37 34 30 28 24 19 15 11 7 4 2 357 353 352 351 349 350 353 354 357 0 1 360 8 43 73 91 96 103 110 114 114 116 122 129 135
81 77 70 63 57 50 46 42 37 32 28 23 19 17 14 7 360 356 355 356 355 353 351 350 354 2 5 5 8 15 33 62 81 92 99 99 100 101 104 111 123 129 133